Wappingers Falls, NY

2:36 AM EST on December 08, 2016 (GMT -0500)
Dutchess County

Weather History for KPOU - December, 2010

Change the Weather History Date:

Thursday, December 30, 2010

  Actual Average Record
Temperature  
Mean Temperature 22 °F 27 °F  
Max Temperature 38 °F 36 °F 56 °F (1984)
Min Temperature 6 °F 18 °F -7 °F (1963)
Degree Days  
Heating Degree Days 43 38  
Month to date heating degree days 1101 1011  
Since 1 July heating degree days 2247 2289  
Cooling Degree Days 0 0  
Month to date cooling degree days 0 0  
Year to date cooling degree days 911 672  
Moisture  
Dew Point 15 °F    
Average Humidity 76    
Maximum Humidity 92    
Minimum Humidity 52    
Precipitation  
Precipitation 0.00 in 0.09 in 0.97 in (1971)
Month to date precipitation 2.34 3.43  
Year to date precipitation 38.53 46.43  
Sea Level Pressure  
Sea Level Pressure 30.18 in    
Wind  
Wind Speed 1 mph (SW)    
Max Wind Speed 8 mph    
Max Gust Speed 9 mph    
Visibility 8 miles    
Events      
T = Trace of Precipitation, MM = Missing Value Source: NWS Daily Summary

Daily Weather History Graph

Daily Weather History Graph

Search for Another Location

Airport or City:

Trip Planner

Search our weather history database for the weather conditions in past years. The results will help you decide how hot, cold, wet, or windy it might be!

Date:

Astronomy

Dec. 30, 2010 Rise Set
Actual Time 7:22 AM EST 4:34 PM EST
Civil Twilight 6:50 AM EST 5:05 PM EST
Nautical Twilight 6:15 AM EST 5:40 PM EST
Astronomical Twilight 5:42 AM EST 6:14 PM EST
Moon 2:37 AM EST (12/30) 12:39 PM EST (12/30)
Length of Visible Light 10h 14m
Length of Day
9h 12m
Waning Crescent, 23% of the Moon is Illuminated
Dec 30
Waning Crescent
Jan 4
New
Jan 12
First Quarter
Jan 19
Full
Jan 26
Last Quarter

Hourly Weather History & Observations

Time (EST) Temp. Windchill Dew Point Humidity Pressure Visibility Wind Dir Wind Speed Gust Speed Precip Events Conditions
12:53 AM 12.0 °F - 8.1 °F 84% 30.14 in 6.0 mi Calm Calm - N/A   Clear
1:53 AM 14.0 °F - 10.0 °F 84% 30.15 in 7.0 mi Calm Calm - N/A   Clear
2:53 AM 10.0 °F - 6.1 °F 84% 30.17 in 7.0 mi Calm Calm - N/A   Clear
3:53 AM 10.0 °F - 5.0 °F 80% 30.18 in 8.0 mi Calm Calm - N/A   Clear
4:53 AM 10.0 °F - 6.1 °F 84% 30.18 in 7.0 mi Calm Calm - N/A   Clear
5:53 AM 7.0 °F - 3.9 °F 87% 30.19 in 8.0 mi Calm Calm - N/A   Clear
6:53 AM 7.0 °F - 3.9 °F 87% 30.22 in 10.0 mi Calm Calm - N/A   Clear
7:53 AM 6.1 °F - 3.0 °F 87% 30.23 in 8.0 mi Calm Calm - N/A   Clear
8:53 AM 10.0 °F - 8.1 °F 92% 30.25 in 7.0 mi Calm Calm - N/A   Clear
9:53 AM 19.9 °F - 16.0 °F 85% 30.25 in 6.0 mi Calm Calm - N/A   Clear
10:53 AM 25.0 °F - 19.9 °F 81% 30.24 in 6.0 mi Calm Calm - N/A   Haze
11:53 AM 30.9 °F 26.2 °F 21.9 °F 69% 30.22 in 9.0 mi WSW 4.6 mph - N/A   Clear
12:53 PM 34.0 °F 29.8 °F 21.0 °F 59% 30.19 in 10.0 mi SW 4.6 mph - N/A   Clear
1:53 PM 36.0 °F - 21.9 °F 57% 30.16 in 10.0 mi Calm Calm - N/A   Clear
2:53 PM 37.0 °F 34.5 °F 21.0 °F 52% 30.14 in 10.0 mi SSW 3.5 mph - N/A   Clear
3:53 PM 37.9 °F 35.5 °F 21.0 °F 51% 30.14 in 10.0 mi SSW 3.5 mph - N/A   Clear
4:53 PM 28.9 °F - 19.9 °F 69% 30.14 in 9.0 mi Calm Calm - N/A   Clear
5:53 PM 25.0 °F - 19.0 °F 78% 30.15 in 8.0 mi Calm Calm - N/A   Clear
6:53 PM 23.0 °F - 18.0 °F 81% 30.15 in 8.0 mi Calm Calm - N/A   Partly Cloudy
7:53 PM 23.0 °F - 19.0 °F 85% 30.15 in 6.0 mi Calm Calm - N/A   Clear
9:53 PM 32.0 °F 28.7 °F 23.0 °F 69% 30.17 in 9.0 mi SSW 3.5 mph - N/A   Clear
10:53 PM 33.1 °F - 24.1 °F 70% 30.15 in 9.0 mi Calm Calm - N/A   Mostly Cloudy
11:53 PM 25.0 °F - 19.9 °F 81% 30.14 in 7.0 mi Calm Calm - N/A   Clear